Budapest Ferihegy, Hungary

10:58 AM CEST on July 23, 2017 (GMT +0200)
Ferihegy

Weather History for LHBP - August, 2013

Change the Weather History Date:

Sunday, August 18, 2013

  Actual Average Record
Temperature  
Mean Temperature 70 °F -  
Max Temperature 89 °F 72 °F 95 °F (2003)
Min Temperature 51 °F 52 °F 48 °F (2008)
Cooling Degree Days 5    
Growing Degree Days 20 (Base 50)    
Moisture  
Dew Point 46 °F    
Average Humidity 43    
Maximum Humidity 82    
Minimum Humidity 20    
Precipitation  
Precipitation 0.00 in - - ()
Sea Level Pressure  
Sea Level Pressure 30.04 in    
Wind  
Wind Speed 3 mph ()    
Max Wind Speed 9 mph    
Max Gust Speed -    
Averages and records for this station are not official NWS values.
T = Trace of Precipitation, MM = Missing Value Source: Averaged Metar Reports

Daily Weather History Graph

Daily Weather History Graph

Search for Another Location

Airport or City:

Trip Planner

Search our weather history database for the weather conditions in past years. The results will help you decide how hot, cold, wet, or windy it might be!

Date:

Astronomy

Aug. 18, 2013 Rise Set
Actual Time 5:43 AM CEST 7:49 PM CEST
Civil Twilight 5:09 AM CEST 8:22 PM CEST
Nautical Twilight 4:28 AM CEST 9:03 PM CEST
Astronomical Twilight 3:41 AM CEST 9:49 PM CEST
Moon 5:45 PM CEST (8/18) 2:25 AM CEST (8/18)
Length of Visible Light 15h 13m
Length of Day
14h 06m
Waxing Gibbous, 90% of the Moon is Illuminated
Aug 18
Waxing Gibbous
Aug 21
Full
Aug 28
Last Quarter
Sep 5
New
Sep 12
First Quarter

Hourly Weather History & Observations

Time (CEST) Temp. Dew Point Humidity Pressure Visibility Wind Dir Wind Speed Gust Speed Precip Events Conditions
12:00 AM 60.8 °F 46.4 °F 59% 30.06 in - Variable 2.3 mph - N/A   Clear
12:30 AM 59.0 °F 46.4 °F 63% 30.06 in - Variable 1.2 mph - N/A   Clear
1:00 AM 57.2 °F 46.4 °F 67% 30.06 in - Calm Calm - N/A   Clear
1:30 AM 55.4 °F 46.4 °F 72% 30.06 in - Variable 1.2 mph - N/A   Clear
2:00 AM 55.4 °F 46.4 °F 72% 30.06 in - Variable 3.5 mph - N/A   Clear
2:30 AM 55.4 °F 48.2 °F 77% 30.04 in - Variable 3.5 mph - N/A   Clear
3:00 AM 55.4 °F 46.4 °F 72% 30.06 in - Variable 1.2 mph - N/A   Clear
3:30 AM 53.6 °F 46.4 °F 77% 30.04 in - Variable 2.3 mph - N/A   Clear
4:00 AM 55.4 °F 46.4 °F 72% 30.04 in - Variable 2.3 mph - N/A   Clear
4:30 AM 55.4 °F 46.4 °F 72% 30.04 in - Variable 2.3 mph - N/A   Clear
5:00 AM 53.6 °F 46.4 °F 77% 30.06 in - Variable 2.3 mph - N/A   Clear
5:30 AM 53.6 °F 44.6 °F 72% 30.06 in - Calm Calm - N/A   Clear
6:00 AM 51.8 °F 46.4 °F 82% 30.06 in - Variable 3.5 mph - N/A   Clear
6:30 AM 53.6 °F 46.4 °F 77% 30.06 in - Variable 2.3 mph - N/A   Clear
7:00 AM 59.0 °F 48.2 °F 67% 30.06 in - Variable 2.3 mph - N/A   Clear
7:30 AM 66.2 °F 48.2 °F 52% 30.06 in - Variable 1.2 mph - N/A   Clear
8:00 AM 71.6 °F 48.2 °F 43% 30.06 in - Variable 1.2 mph - N/A   Clear
8:30 AM 75.2 °F 44.6 °F 34% 30.09 in - Variable 1.2 mph - N/A   Clear
9:00 AM 78.8 °F 46.4 °F 32% 30.09 in - Variable 1.2 mph - N/A   Clear
9:30 AM 80.6 °F 44.6 °F 28% 30.09 in - Variable 3.5 mph - N/A   Clear
10:00 AM 82.4 °F 42.8 °F 25% 30.09 in - SSE 4.6 mph - N/A   Clear
10:30 AM 84.2 °F 44.6 °F 25% 30.09 in - Variable 3.5 mph - N/A   Clear
11:00 AM 84.2 °F 44.6 °F 25% 30.09 in - Variable 5.8 mph - N/A   Clear
11:30 AM 84.2 °F 44.6 °F 25% 30.06 in - SW 4.6 mph - N/A   Clear
12:00 PM 84.2 °F 44.6 °F 25% 30.06 in - South 5.8 mph - N/A   Clear
12:30 PM 87.8 °F 46.4 °F 24% 30.06 in - SE 5.8 mph - N/A   Clear
1:00 PM 86.0 °F 42.8 °F 22% 30.06 in - South 4.6 mph - N/A   Clear
1:30 PM 86.0 °F 44.6 °F 23% 30.04 in - SSE 8.1 mph - N/A   Clear
2:00 PM 87.8 °F 44.6 °F 22% 30.04 in - Variable 9.2 mph - N/A   Clear
2:30 PM 87.8 °F 44.6 °F 22% 30.04 in - South 8.1 mph - N/A   Clear
3:00 PM 87.8 °F 44.6 °F 22% 30.04 in - East 6.9 mph - N/A   Clear
3:30 PM 87.8 °F 44.6 °F 22% 30.01 in - South 8.1 mph - N/A   Clear
4:00 PM 87.8 °F 44.6 °F 22% 30.01 in - South 5.8 mph - N/A   Clear
4:30 PM 89.6 °F 44.6 °F 21% 30.01 in - SSE 6.9 mph - N/A   Clear
5:00 PM 89.6 °F 42.8 °F 20% 30.01 in - Variable 2.3 mph - N/A   Clear
5:30 PM 89.6 °F 42.8 °F 20% 30.01 in - SW 5.8 mph - N/A   Clear
6:00 PM 89.6 °F 42.8 °F 20% 30.01 in - Variable 3.5 mph - N/A   Clear
6:30 PM 87.8 °F 42.8 °F 21% 30.01 in - SW 5.8 mph - N/A   Clear
7:00 PM 86.0 °F 46.4 °F 25% 30.01 in - Variable 3.5 mph - N/A   Clear
7:30 PM 84.2 °F 46.4 °F 27% 30.01 in - Variable 3.5 mph - N/A   Clear
8:00 PM 78.8 °F 50.0 °F 36% 30.01 in - Variable 1.2 mph - N/A   Clear
8:30 PM 73.4 °F 50.0 °F 44% 30.01 in - Variable 2.3 mph - N/A   Clear
9:00 PM 75.2 °F 50.0 °F 41% 30.01 in - Variable 2.3 mph - N/A   Clear
9:30 PM 71.6 °F 50.0 °F 46% 30.01 in - East 4.6 mph - N/A   Clear
10:00 PM 71.6 °F 50.0 °F 46% 30.01 in - Variable 2.3 mph - N/A   Clear
10:30 PM 71.6 °F 50.0 °F 46% 30.01 in - Variable 3.5 mph - N/A   Clear
11:00 PM 66.2 °F 50.0 °F 56% 30.01 in - Variable 2.3 mph - N/A   Clear
11:30 PM 69.8 °F 48.2 °F 46% 30.01 in - Variable 3.5 mph - N/A   Clear